Zurück zum Katalog

MTCUBE-2

LostWissenschaftMEO
NORAD 53112·PAYLOAD·🇫🇷 France
Dieser Satellitenname wurde noch nicht durch offizielle Quellen bestätigt.

Gestartet Jul 13, 2022 von Guiana Space Centre

Loading…

Nächste Überflüge (nächste 24 Stunden)

TLE

VeraltetSource: Space-Track

Epoche: Oct 20, 2022, 01:13 UTC

1 53112U 22080H   22293.05099946 -.00000003  00000-0  00000+0 0  9997
2 53112  70.1502  43.1307 0006644 224.4624 135.5503  6.42556632  6211

Verfolge MTCUBE-2 in Echtzeit mit AllMySat

Download on the App Store